This is the latest recevied weather packets stored in our database for station/object KF0RZX-13. If no packets are shown the sender has not sent any weather packets the latest 10 day(s).
| Time | Temp. | Humidity | Pressure | Rain* | Wind** | Luminosity | Snow |
|---|---|---|---|---|---|---|---|
| 1788058638 | 20° C | 56% | 1020 hPa | 0 mm | - | - | - |
| 1788056831 | 20° C | 56% | 1019.6 hPa | 0 mm | - | - | - |
| 1788055026 | 22.22° C | 60% | 1019.6 hPa | 0 mm | - | - | - |
| 1788053221 | 23.89° C | 50% | 1019.6 hPa | 0 mm | - | - | - |
| 1788051416 | 23.89° C | 54% | 1018.3 hPa | 0 mm | - | - | - |
| 1788049611 | 23.89° C | 50% | 1017.6 hPa | 0 mm | - | - | - |
| 1788047806 | 25° C | 47% | 1016.9 hPa | 0 mm | - | - | - |
| 1788046001 | 26.11° C | 45% | 1016.9 hPa | 0 mm | - | - | - |
| 1788044199 | 32.22° C | 26% | 1015.9 hPa | 0 mm | - | - | - |
| 1788042393 | 32.78° C | 24% | 1015.9 hPa | 0 mm | - | - | - |
| 1788040578 | 32.78° C | 21% | 1015.9 hPa | 0 mm | - | - | - |
| 1788038771 | 32.78° C | 21% | 1016.6 hPa | 0 mm | - | - | - |
| 1788036966 | 32.22° C | 24% | 1016.9 hPa | 0 mm | - | - | - |
| 1788035164 | 32.22° C | 24% | 1017.3 hPa | 0 mm | - | - | - |
| 1788033356 | 32.22° C | 24% | 1017.6 hPa | 0 mm | - | - | - |
| 1788031552 | 32.22° C | 24% | 1017.9 hPa | 0 mm | - | - | - |
| 1788029747 | 32.78° C | 24% | 1017.9 hPa | 0 mm | - | - | - |
| 1788027941 | 32.22° C | 24% | 1017.9 hPa | 0 mm | - | - | - |
| 1788024313 | 31.11° C | 26% | 1018.3 hPa | 0 mm | - | - | - |
| 1788022507 | 30° C | 25% | 1018.6 hPa | 0 mm | - | - | - |
| 1788020701 | 30° C | 27% | 1018.6 hPa | 0 mm | - | - | - |
| 1788018896 | 26.11° C | 39% | 1019 hPa | 0 mm | - | - | - |
| 1788017093 | 26.11° C | 34% | 1019 hPa | 0 mm | - | - | - |
| 1788015288 | 25° C | 39% | 1019 hPa | 0 mm | - | - | - |
| 1788013481 | 23.89° C | 41% | 1019.3 hPa | 0 mm | - | - | - |
* Rain latest hour (hover to see other rain measurements)
** Current wind speed in m/s (hover to see current wind gust speed)